#timestamp,LO_Frequency,Hit,StdDev 
1689879615.1,286046999.8,N
1689879635.9,286046999.0,N
1689879655.7,286047000.9,N
1689879675.5,286047002.6,N
1689879695.4,286047000.6,N
1689879715.2,286047001.2,N
1689879735.0,286047000.5,N
1689879736.0,286047000.5,N
1689879755.8,286046998.1,N
1689879775.6,286046997.2,N
1689879795.5,286046993.5,N
1689879815.3,286046994.5,N
1689879835.1,286046992.6,N
1689879855.9,286046991.9,N
1689879875.7,286046993.6,N
1689879895.6,286046996.4,N
1689879915.4,286046996.2,N
1689879935.2,286046997.9,N
1689879955.1,286046999.1,N
1689879956.0,286046999.1,N
1689879975.8,286046998.5,N
1689879995.6,286047000.9,N
1689880015.5,286046998.9,N
1689880035.3,286046997.8,N
1689880055.2,286046999.5,N
1689880075.9,286047001.5,N
1689880095.7,286047001.9,N
1689880115.6,286047004.1,N
1689880135.4,286047001.9,N
1689880155.2,286047004.0,N
1689880175.1,286046999.9,N
1689880176.0,286046999.9,N
1689880195.8,286047001.9,N
1689880215.7,286047001.3,N
1689880235.5,286047001.6,N
1689880255.3,286047005.6,N
1689880275.2,286047004.9,N
1689880295.0,286047007.3,N
1689880295.9,286047007.3,N
1689880315.7,286047010.6,N
1689880335.6,286047011.7,N
1689880355.4,286047008.2,N
1689880375.3,286047006.7,N
1689880395.1,286047006.4,N
1689880396.0,286047006.4,N
1689880415.8,286047009.0,N
1689880435.7,286047004.5,N
1689880455.5,286047003.9,N
1689880475.3,286047001.3,N
1689880495.2,286047007.6,N
1689880515.0,286047006.2,N
1689880515.9,286047006.2,N
1689880535.8,286047011.9,Y
1689880555.6,286047007.9,P
1689880575.4,286047010.1,P
1689880595.3,286047011.7,P
1689880615.1,286047015.5,Y
1689880635.9,286047007.3,P
1689880655.7,286047004.7,P
1689880675.5,286047009.1,P
1689880695.4,286047007.2,Y
1689880715.2,286046999.2,P
1689880735.1,286047000.6,N
1689880736.0,286047000.6,N
1689880755.8,286047002.7,N
1689880775.6,286047002.6,N
1689880795.5,286047003.4,N
1689880815.3,286047007.6,Y
1689880835.2,286047005.6,P
1689880855.9,286047006.9,P
1689880875.7,286047006.3,P
1689880895.6,286047007.9,Y
1689880915.4,286047003.6,P
1689880935.2,286047005.7,P
1689880955.1,286047004.7,P
1689880956.0,286047004.7,Y
1689880975.8,286046998.5,P
1689880995.7,286046998.1,N
1689881015.5,286047002.0,N
1689881035.3,286047003.6,N
1689881055.2,286047003.0,N
1689881075.0,286047003.6,N
1689881075.9,286047003.6,N
1689881095.7,286047003.6,N
1689881115.6,286047003.0,N
1689881135.4,286047004.7,N
1689881155.3,286047004.7,N
1689881175.1,286047007.5,Y
1689881195.8,286047003.7,P
1689881215.7,286047003.0,P
1689881235.5,286047003.3,P
1689881255.4,286047003.5,Y
1689881275.2,286047001.6,P
1689881295.0,286046999.3,N
1689881295.9,286046999.3,N
1689881315.8,286047000.7,N
1689881335.6,286046999.3,N
1689881355.4,286046998.6,N
1689881375.3,286046998.6,N
1689881395.1,286046998.8,N
1689881415.9,286046993.7,Y
1689881435.7,286046990.7,P
1689881455.5,286046988.8,N
1689881475.4,286046989.8,N
1689881495.2,286046990.2,N
1689881515.0,286046993.0,N
1689881515.9,286046993.0,N
1689881535.8,286046991.5,N
1689881555.6,286046987.3,Y
1689881575.5,286046996.0,P
1689881595.3,286046992.4,P
1689881615.1,286046992.7,P
1689881635.9,286046990.9,Y
1689881655.7,286047002.8,P
1689881675.6,286047001.8,N
1689881695.4,286047000.8,N
1689881715.2,286047002.4,N
1689881735.1,286046998.5,N
1689881736.0,286046998.5,N
1689881755.8,286046998.4,N
1689881775.6,286047001.2,N
1689881795.5,286046999.0,N
1689881815.3,286047000.1,N
1689881835.2,286047000.5,N
1689881855.9,286047001.3,N
1689881875.7,286047005.3,N
1689881895.6,286047006.8,N
1689881915.4,286047008.4,N
1689881935.2,286047013.0,Y
1689881955.1,286047016.3,P
1689881956.0,286047016.3,N
1689881975.8,286047018.3,N
1689881995.7,286047018.3,N
1689882015.5,286047019.1,N
1689882035.3,286047021.6,Y
1689882055.2,286047006.1,P
1689882075.0,286047008.0,N
1689882075.9,286047008.0,N
1689882095.7,286047009.0,N
1689882115.6,286047007.1,N
1689882135.4,286047008.6,Y
1689882155.3,286046995.1,P
1689882175.1,286046990.3,N
1689882195.8,286046993.0,N
1689882215.7,286046990.2,N
1689882235.5,286046990.2,N
1689882255.3,286046989.1,N
1689882275.2,286046989.4,N
1689882295.0,286046990.0,N
1689882295.9,286046990.0,N
1689882315.8,286046986.5,N
1689882335.6,286046986.6,N
1689882355.4,286046986.1,N
1689882375.3,286046986.7,N
1689882395.1,286046982.8,Y
1689882415.9,286046992.6,P
1689882435.7,286046994.1,P
1689882455.5,286046994.4,P
1689882475.4,286046992.9,Y
1689882495.2,286047002.3,P
1689882515.0,286047005.2,N
1689882515.9,286047005.2,N
1689882535.8,286047007.6,N
1689882555.6,286047009.2,N
1689882575.5,286047011.0,N
1689882595.3,286047013.0,N
1689882615.1,286047014.4,N
1689882635.9,286047012.9,N
1689882655.7,286047009.4,N
1689882675.5,286047014.0,N
1689882695.4,286047014.3,N
1689882715.2,286047012.9,N
1689882735.1,286047014.8,N
1689882736.0,286047014.8,N
1689882755.8,286047017.8,Y
1689882775.6,286047007.8,P
1689882795.5,286047006.7,P
1689882815.3,286047008.5,P
1689882835.2,286047010.1,Y
1689882855.9,286047004.2,P
1689882875.7,286047001.5,N
1689882895.6,286047002.2,N
1689882915.4,286046998.9,N
1689882935.2,286046997.9,N
1689882955.1,286046998.0,N
1689882956.0,286046998.0,N
1689882975.8,286046992.4,N
1689882995.7,286046990.7,N
1689883015.5,286046990.9,N
1689883035.3,286046992.4,N
1689883055.2,286046992.9,N
1689883075.0,286046994.1,N
1689883075.9,286046994.1,N
1689883095.7,286046996.8,N
1689883115.6,286046999.6,N
1689883135.4,286047000.0,N
1689883155.3,286046999.9,N
1689883175.1,286046999.8,N
1689883176.0,286046999.8,N
1689883195.8,286046999.1,N
